User: anonymous   Login
Location: Bakov nad Jizerou
(50.4784°N, 14.9394°E)
Time: 17:21:20
(UTC+00:00)
Language:

Thor Agena Rocket - Orbit

View from above orbital plane
View from above orbital plane
View from above satellite
View from above satellite

Ground track
Ground track

The orbit data is extracted from the following two-line orbital elements,

1   733U 64002A   21270.49620155  .00000038  00000-0  31391-4 0  9991
2   733  98.9771 185.2205 0033092 311.7358  48.0996 14.32456276  6107
Epoch (UTC): 27 September 2021 11:54:31
Eccentricity: 0.0033092
inclination: 98.9771°
perigee height: 760 km
apogee height: 807 km
right ascension of ascending node: 185.2205°
argument of perigee: 311.7358°
revolutions per day: 14.32456276
mean anomaly at epoch: 48.0996°
orbit number at epoch: 610

The dashed part of the orbit path shows where the satellite is in the earth's shadow,  

DLR